Hourly Data Report for July 06, 2021

BORDEN AWOS
ONTARIO
Current Station Operator: DND

44°16'20.000" N
79°54'42.000" W
222.50 m
611B002
71534
YBN

Download Data

Hourly Data (July 2021)
Hourly Data Report for July 6, 2021
TIME
LST
Temp Definition
°C
Dew Point Definition
°C
Rel Hum Definition
%
Precip. Amount Definition
mm

Wind Dir Definition
10's deg

Wind Spd Definition
km/h
Visibility Definition
km
Stn Press Definition
kPa
Hmdx Definition


Wind Chill Definition


Weather Definition


00:00 20.6 20.0 96   7 7 14.5 98.48 28   LegendNANA
01:00 21.1 19.8 92   27 6 14.5 98.42 29   LegendNANA
02:00 21.0 20.2 95   28 4 14.5 98.43 29   LegendNANA
03:00 21.0 19.7 92   27 7 14.5 98.45 28   LegendNANA
04:00 21.2 19.7 91   36 4 14.5 98.52 29   LegendNANA
05:00 20.5 19.4 93     0 14.5 98.54 28   LegendNANA
06:00 21.7 20.4 92   34 4 14.5 98.61 30   LegendNANA
07:00 24.0 21.3 85   28 7 14.5 98.64 33   LegendNANA
08:00 25.3 21.1 78   30 11 14.5 98.66 34   LegendNANA
09:00 27.2 20.8 68   29 9 14.5 98.68 35   LegendNANA
10:00 28.4 19.9 60   29 17 14.5 98.67 36   LegendNANA
11:00 29.1 19.5 56   31 13 14.5 98.69 36   LegendNANA
12:00 29.3 20.0 57   33 9 14.5 98.68 37   LegendNANA
13:00 29.3 21.2 62   33 15 14.5 98.70 38   LegendNANA
14:00 29.9 21.1 59   34 13 14.5 98.71 38   LegendNANA
15:00 29.8 20.9 59   35 11 14.5 98.71 38   LegendNANA
16:00 28.9 19.4 57   35 22 14.5 98.74 36   LegendNANA
17:00 28.2 18.2 55   34 20 14.5 98.74 34   LegendNANA
18:00 27.3 17.7 56   33 9 14.5 98.74 33   LegendNANA
19:00 25.8 17.8 61   28 6 14.5 98.76 32   LegendNANA
20:00 23.0 18.0 74   32 4 14.5 98.78 29   LegendNANA
21:00 20.6 18.2 86   10 4 14.5 98.81 27   LegendNANA
22:00 19.7 18.3 92   1 6 14.5 98.82     LegendNANA
23:00 19.0 17.8 93   7 6 14.5 98.83     LegendNANA

Notes on Data Quality.

Legend

  • E = Estimated
  • M = Missing
  • NA = Not Available*
  • [empty] = Indicates an unobserved value
Date modified: